User: anonymous   Login
Location: Ballingbuur
(53.0000°N, 5.7667°E)
Time: 23:53:58
(UTC+00:00)
Language:

Cosmos 1844 - Orbit

View from above orbital plane
View from above orbital plane
View from above satellite
View from above satellite

Ground track
Ground track

The orbit data is extracted from the following two-line orbital elements,

1 17973U 87041A   21060.98547220  .00000250  00000-0  15606-3 0  9991
2 17973  70.8986 300.2517 0033055 255.0533 104.6928 14.14115479744321
Epoch (UTC): 01 March 2021 23:39:04
Eccentricity: 0.0033055
inclination: 70.8986°
perigee height: 821 km
apogee height: 869 km
right ascension of ascending node: 300.2517°
argument of perigee: 255.0533°
revolutions per day: 14.14115479
mean anomaly at epoch: 104.6928°
orbit number at epoch: 74432

The dashed part of the orbit path shows where the satellite is in the earth's shadow,  

DLR